Showing default

TJS-15, 63157

Orbit data source: Space-Track

TJS-15, 63157 is a payload satellite owned by PLA SSF (CN) in GEO that was launched on Sun, 09 Mar 2025 UTC via a CHANG ZHENG 3B launch vehicle from the Xichang Space Center, China (XSC). Payload-class satellites include a variety of spacecraft equipped with specific instruments for various scientific and technological missions. These include communications satellites like Starlink; space stations such as the ISS; scientific satellites like the Hubble; Earth observation satellites from companies like Planet Labs, Umbra, and HawkEye 360; GPS; miniature CubeSats for education and research; and military/defense satellites.

Not visible in the next 10 days
Identifier
63157, 2025-045A
Orbit
GEO
Country
Flag of CNCN / PRC
Related business
Manufacturer
SISE
Mission
Operational Defense Sigint
Bus & Motor
FY-4?, LAE
Mass
~5,000 kg wet, ~2,500 kg dry
Launch date (UTC)
2025-03-09 (6 months ago)
Launch vehicle
CHANG ZHENG 3B
Launch site
Xichang Space Center, China (XSC)
Object type
Payload
Rocket body
Debris
Shape & HBR
Box + 2 Pan, 15.0 m
Radar Cross Section
34.063 m², Large (>1 m²)

Expand to show TLE details & history
Last TLE update: 5 days ago

TLE from 5 days ago
0 TJS-15
1 63157U 25045A   25254.67518222 -.00000266  00000-0  00000+0 0  9993
2 63157   0.0503  91.5641 0001560 183.2286  53.2659  1.00270788  1969
Epoch: 2025-09-11T16:12Z
TLE epoch observation values (Epoch: 2025-09-11T16:12:15.743Z)
Latitude
-0.03432°
Longitude
94.0616°
Altitude
35,782.439 km
Speed
3.075 km/s
True Right ascension
21h 52m 14s
True Declination
0° 02' 03"
Sunlit
Object was in daylight at epoch
Visualization orbit readout
Latitude
Unknown
Longitude
Unknown
Altitude
Unknown
Speed
Unknown
Apparent Right ascension
Unknown
Apparent Declination
Unknown
Sunlit
N/A
Visualization observer readout
Local Sidereal Time
00:04:24
Azimuth
Unknown
Elevation
Unknown
Doppler factor
Unknown
Orbital elements
Apogee altitude
35,794.523 km
Perigee altitude
35,781.367 km
Semi-major axis
42,166.082 km
Eccentricity
0.00016
Inclination
0.0503°
RAAN
91.5641°
Arg. of periapsis
183.2286°
True anomaly
53.28023°
Mean anomaly
53.2659°
Eccentric anomaly
53.27306°
Mean motion
0.25067 °/min
Orbital period
1,436.16 mins
BSTAR
0
Loading maneuver chart data...
Computing Atmospheric mass density...
Loading historical data...
Loading historical data...
Loading historical data...
Loading historical data...
Loading historical data...
Loading historical data...
Loading historical data...
Other satellites on launch #45 in the year 2025 (2025-03-09 UTC)

Documentation

Showing up to 5 results
|